SCP
0 0 0 0 0 0 0 0 0 0 0 0 0 0 0 0 0 0 0 0 0 0 0 0 0 0 0 0 0 0 0 0 0 0 0 0 0 0 0 0 0 0 0 0 0 0 0 0 0 0 0 0 0 0
0 0 0 0 0 0 0 0 0 0 0 0 0 0 0 0 0 0 0 0 0 0 0 0 0 0 0 0 0 0 0 0 0 0 0 0 0 0 0 0 0 0 0 0 0 0 0 0 0 0 0 0 0 0
0 0 0 0 0 0 0 0 0 0 0 0 0 0 0 0 0 0 0 0 0 0 0 0 0 0 0 0 0 0 0 0 0 0 0 0 0 0 0 0 0 0 0 0 0 0 0 0 0 0 0 0 0 0
0 0 0 0 0 0 0 0 0 0 0 0 0 0 0 0 0 0 0 0 0 0 0 0 0 0 0 0 0 0 0 0 0 0 0 0 0 0 0 0 0 0 0 0 0 0 0 0 0 0 0 0 0 0
0 0 0 0 0 0 0 0 0 0 0 0 0 0 0 0 0 0 0 0 0 0 0 0 0 0 0 0 0 0 0 0 0 0 0 0 0 0 0 0 0 0 0 0 0 0 0 0 0 0 0 0 0 0
0 0 0 0 0 0 0 0 0 0 0 0 -0 0 0 0 0 0 0 0 0 0 0 0 0 0 0 0 0 0 0 0 0 0 0 0 0 0 0 0 0 0 0 0 0 0 0 0 0 0 0 0 0 0
0 0 0 0 0 0 0 0 0 0 0 0 0 0 0 0 0 0 0 0 0 0 0 0 0 0 0 0 0 0 0 0 0 0 0 0 0 0 0 0 0 0 0 0 0 0 0 0 0 0 0 0 0 0
0 0 0 0 0 0 0 0 0 0 0 0 0 0 0 -0 0 0 0 0 0 0 0 0 0 0 0 0 0 0 0 0 0 0 0 0 0 0 0 0 0 0 0 0 0 0 0 0 0 0 0 0 0 0
0 0 0 0 0 0 0 0 0 0 0 0 0 0 0 0 0 0 0 0 0 0 0 0 0 0 0 0 0 0 0 0 0 0 0 0 0 0 0 0 0 0 0 0 0 0 0 0 0 0 0 0 0 0
0 0 0 0 0 0 0 0 0 0 0 0 0 0 0 0 0 0 0 0 0 0 0 0 0 0 0 0 0 0 0 0 0 0 0 0 0 0 0 0 0 0 0 0 0 0 0 0 0 0 0 0 0 0
0 0 0 0 0 0 0 0 0 0 0 0 0 0 0 0 0 0 0 0 0 0 0 0 0 0 0 0 0 0 0 0 0 0 0 0 0 0 0 0 0 0 0 0 0 0 0 0 0 0 0 0 0 0
0 0 0 0 0 0 0 0 0 0 0 0 0 0 0 0 0 0 0 0 0 0 0 0 0 0 0 0 0 0 0 0 0 0 0 0 0 0 0 0 0 0 0 0 0 0 0 0 0 0 0 0 0 0
0 0 0 0 0 0 0 0 0 0 0 0 0 0 0 0 0 0 0 0 0 0 0 0 0 0 0 0 0 0 0 0 0 0 0 0 0 0 0 0 0 0 0 0 0 0 0 0 0 0 0 0 0 0
0 0 0 0 0 0 0 0 0 0 0 0 0 0 0 0 0 0 0 0 0 0 0 0 0 0 0 0 0 0 0 0 0 0 0 0 0 0 0 0 0 0 0 0 0 0 0 0 0 0 0 0 0 0
0 0 0 0 -0 0 -0 -0 0 0 0 0 0 0 0 0 0 0 0 0 0 0 0 0 0 0 0 0 0 0 0 0 0 0 0 0 0 0 0 0 0 0 0 0 0 0 0 0 0 0 0 0 0 0
0 0 0 0 0 0 0 0 0 0 0 0 0 0 0 0 0 0 0 0 0 0 0 0 0 0 0 0 0 0 0 0 0 0 0 0 0 0 0 0 0 0 0 0 0 0 0 0 0 0 0 0 0 0
-0 0 0 0 0 0 0 0 0 0 0 0 0 0 0 0 0 0 0 0 0 0 0 0 0 0 0 0 0 0 0 0 0 0 0 0 0 0 0 0 0 0 0 0 0 0 0 0 0 0 0 0 0 0
0 0 0 -0 0 0 0 0 0 0 0 0 0 0 0 0 0 0 0 0 0 0 0 0 0 0 0 0 0 0 0 0 0 0 0 0 0 0 0 0 0 0 0 0 0 0 0 0 0 0 0 0 0 0
0 0 0 0 0 0 0 0 0 0 0 0 0 0 0 0 0 0 0 0 0 0 0 0 0 0 0 0 0 0 0 0 0 0 0 0 0 0 0 0 0 0 0 0 0 0 0 0 0 0 0 0 0 0
0 0 0 0 0 0 0 0 0 0 0 0 0 0 0 0 0 0 0 0 0 0 0 0 0 0 0 0 0 0 0 0 0 0 0 0 0 0 0 0 0 0 0 0 0 0 0 0 0 0 0 0 0 0
0 0 0 0 0 0 0 0 0 0 0 0 0 0 0 0 0 0 0 0 0 0 0 0 0 0 0 0 0 0 0 0 0 0 0 0 0 0 0 0 0 0 0 0 0 0 0 0 0 0 0 0 0 0
0 0 0 0 0 0 0 0 0 0 0 0 0 0 0 0 0 0 0 0 0 0 0 0 0 0 0 0 0 0 0 0 0 0 0 0 0 0 0 0 0 0 0 0 0 0 0 0 0 0 0 0 0 0
0 0 0 0 0 0 0 0 0 -0 -0 0 0 -0 0 0 0 0 0 0 0 0 0 0 0 0 0 0 0 0 0 0 0 0 0 0 0 0 0 0 0 0 0 0 0 0 0 0 0 0 0 0 0 0
0 0 0 0 0 0 0 0 0 0 0 -0 0 0 0 0 0 0 0 0 0 0 0 0 0 0 0 0 0 0 0 0 0 0 0 0 0 0 0 0 0 0 0 0 0 0 0 0 0 0 0 0 0 0
0 -0 -0 0 0 0 0 0 0 -0 -0 0 0 0 0 0 0 0 0 0 0 0 0 0 0 0 0 0 0 0 0 0 0 0 0 0 0 0 0 0 0 0 0 0 0 0 0 0 0 0 0 0 0 0
-0 0 0 0 0 0 0 0 0 0 0 0 0 0 0 0 0 0 0 0 0 0 0 0 0 0 0 0 0 0 0 0 0 0 0 0 0 0 0 0 0 0 0 0 0 0 0 0 0 0 0 0 0 0
-0 0 0 0 0 0 0 0 0 0 0 0 -0 -0 -0 0 0 0 0 0 0 0 0 0 0 0 0 0 0 0 0 0 0 0 0 0 0 0 0 0 0 0 0 0 0 0 0 0 0 0 0 0 0 0
0 0 0 0 0 0 0 0 0 0 0 0 -0 0 -0 -0 -0 0 0 0 0 0 0 0 0 0 0 0 0 0 0 0 0 0 0 0 0 0 0 0 0 0 0 0 0 0 0 0 0 0 0 0 0 0
0 0 0 0 0 0 0 0 0 0 0 0 0 0 0 -0 0 0 0 0 0 0 0 0 0 0 0 0 0 0 0 0 0 0 0 0 0 0 0 0 0 0 0 0 0 0 0 0 0 0 0 0 0 0
0 0 0 0 0 0 0 0 0 0 0 0 0 0 0 0 0 0 0 0 0 0 0 0 0 0 0 0 0 0 0 0 0 0 0 0 0 0 0 0 0 0 0 0 0 0 0 0 0 0 0 0 0 0
0 0 0 0 0 0 0 0 0 0 0 0 0 0 0 0 0 0 0 0 0 0 0 0 0 0 0 0 0 0 0 0 0 0 0 0 0 0 0 0 0 0 0 0 0 0 0 0 0 0 0 0 0 0
0 0 0 0 0 0 0 0 0 0 0 0 0 0 0 0 0 0 0 0 0 0 0 0 0 0 0 0 0 0 0 0 0 0 0 0 0 0 0 0 0 0 0 0 0 0 0 0 0 0 0 0 0 0
0 0 0 0 0 0 0 0 0 0 0 0 0 0 0 0 0 -0 0 0 0 0 0 0 0 0 0 0 0 0 0 0 0 0 0 0 0 0 0 0 0 0 0 0 0 0 0 0 0 0 0 0 0 0
Wind_Speed_500mb
36 37 38 38 40 40 34 30 47 55 53 54 50 64 137 143 136 129 84 89 78 24 44 37 30 33 32 30 11 31 14 4 2 4 6 7 6 9 3 7 12 13 12 8 5 5 16 19 10 4 6 15 22 29
41 40 38 40 38 34 33 36 38 39 54 56 60 55 80 139 143 130 78 85 79 31 28 41 37 34 35 40 32 52 7 19 23 6 2 6 5 5 7 6 4 3 12 8 15 11 5 13 11 4 11 17 20 26
40 40 39 40 42 38 34 33 30 34 42 50 44 55 66 85 139 141 89 96 80 26 25 30 36 35 33 34 36 26 16 21 23 16 11 4 7 7 7 9 5 6 11 5 7 8 12 7 10 9 17 21 23 22
42 42 43 41 42 41 38 36 32 24 23 30 34 36 63 55 89 127 100 98 84 31 14 9 28 31 34 32 37 27 25 35 39 27 7 5 6 12 5 5 5 5 18 9 9 14 14 20 15 14 28 22 24 39
47 41 42 42 42 43 42 38 34 33 30 26 21 21 38 61 52 114 92 105 87 47 13 23 31 19 28 29 28 22 39 47 34 10 4 3 11 8 9 5 6 21 10 8 7 10 10 13 21 38 25 30 43 47
43 47 45 43 41 42 43 40 37 34 33 31 15 14 27 75 50 73 28 72 77 50 24 9 15 27 32 34 40 43 41 32 14 8 7 9 9 8 7 7 10 24 21 18 12 9 15 27 19 22 34 51 40 48
45 47 49 46 44 42 43 43 39 37 34 32 21 16 25 32 67 64 24 47 68 52 19 11 9 18 43 43 31 29 25 16 9 8 6 9 6 8 3 7 24 28 26 17 14 13 6 7 25 46 40 41 42 40
44 45 48 49 45 44 43 44 40 37 34 31 23 19 27 22 33 44 8 63 79 44 16 9 6 13 31 11 10 14 12 10 7 7 8 6 9 2 8 13 31 30 23 13 14 13 25 32 31 30 31 33 34 33
44 46 46 47 47 47 44 44 43 41 36 34 28 18 46 45 26 26 81 87 52 16 16 10 14 9 24 10 11 10 12 6 5 3 4 8 4 10 13 35 43 37 21 19 15 22 20 18 20 22 25 25 30 31
47 46 46 48 48 51 49 48 49 49 45 40 35 16 9 19 62 88 41 11 10 6 9 7 19 9 25 12 6 12 8 5 5 3 12 3 7 21 22 22 33 33 21 13 17 12 17 18 20 19 21 23 28 31
47 48 51 52 53 54 51 52 55 58 50 37 15 7 50 91 37 12 10 7 8 6 8 12 14 17 14 7 6 4 6 3 5 6 7 5 7 13 35 34 32 24 14 16 15 15 16 18 21 22 20 21 25 27
52 53 54 52 53 53 56 61 64 58 44 32 29 63 43 12 9 11 5 4 1 8 10 12 18 17 19 14 12 5 7 4 6 18 4 7 5 22 43 41 31 16 14 15 16 14 16 17 21 23 22 23 25 25
50 51 49 48 50 55 57 58 52 53 41 41 26 10 7 3 7 10 12 1 6 17 24 25 11 17 15 10 13 7 8 6 24 3 8 8 20 37 42 36 19 12 14 16 16 16 17 18 19 22 24 24 27 26
47 47 47 48 50 52 56 65 67 53 42 14 9 8 0 5 2 6 3 9 13 38 56 44 20 12 11 8 5 9 1 8 3 5 12 5 37 43 38 26 15 15 16 17 16 17 17 19 19 21 27 31 32 31
43 42 40 41 37 47 66 77 71 51 9 6 9 7 7 3 5 9 20 25 42 61 51 35 22 16 7 9 3 9 7 7 12 10 4 17 35 38 31 19 17 17 18 16 16 15 17 20 22 23 26 31 33 33
40 39 31 40 70 78 72 106 87 35 9 12 16 10 1 5 5 13 25 36 51 45 30 21 9 9 1 10 8 10 16 13 7 5 17 29 35 24 19 18 16 16 15 15 15 17 18 21 26 28 28 30 32 35
36 31 44 80 83 73 72 73 30 22 12 9 10 23 13 27 15 17 31 27 25 9 6 9 9 8 5 6 4 6 9 5 17 24 28 20 15 15 16 15 15 13 14 15 16 19 21 25 31 33 34 29 34 34
61 76 84 80 56 36 39 16 15 17 18 25 11 14 28 23 21 21 17 14 8 9 7 7 19 6 9 10 5 3 8 20 20 14 12 12 12 14 15 14 13 13 15 17 19 22 26 30 33 34 36 36 35 32
94 97 78 58 33 12 13 15 15 15 17 13 19 27 28 28 35 30 33 38 37 29 19 8 11 6 3 9 9 10 17 14 10 9 9 11 13 14 12 11 13 15 19 20 23 27 31 32 35 35 37 38 38 34
89 69 48 17 13 12 16 15 15 20 10 10 12 16 14 17 24 33 32 30 29 13 20 10 4 5 7 8 8 9 7 7 8 7 7 9 10 12 13 13 16 21 24 26 30 32 33 34 31 37 38 38 39 37
28 42 43 42 42 31 20 15 19 16 16 14 13 12 14 22 19 22 23 25 19 14 10 11 12 11 6 2 2 4 5 6 6 7 8 11 10 13 17 22 25 27 30 30 33 32 33 35 35 38 38 37 38 38
29 31 27 30 21 18 23 25 17 15 11 11 11 11 13 9 12 14 13 27 14 12 10 10 10 7 3 1 3 4 5 7 9 11 14 17 18 19 22 25 31 32 34 34 35 37 35 34 38 38 38 37 39 38
33 31 21 19 16 16 9 10 10 9 8 4 6 8 8 9 9 12 14 13 10 13 16 18 15 11 7 4 5 8 11 15 17 19 22 26 26 27 29 29 33 37 37 31 35 38 39 40 41 42 39 41 43 44
28 18 19 16 21 7 9 10 10 10 9 7 7 5 4 4 5 11 6 6 9 10 15 19 15 9 6 7 10 15 17 20 26 28 29 32 33 31 33 33 35 37 37 37 38 40 42 43 43 42 42 46 47 50
12 28 17 14 17 10 11 8 8 9 7 5 7 4 3 3 6 7 4 5 8 13 18 17 15 15 14 11 12 20 25 31 36 39 28 33 38 37 33 33 33 33 37 45 43 43 42 43 43 46 48 51 55 58
17 25 15 16 11 9 5 6 6 4 6 7 3 1 2 4 9 3 3 8 10 16 22 23 23 18 14 23 32 31 30 34 37 39 33 33 35 39 42 43 41 33 34 38 43 44 43 43 47 52 57 58 58 60
11 9 15 21 8 7 10 12 9 9 9 5 4 5 4 8 4 0 3 13 14 18 20 20 20 23 29 30 31 33 31 30 33 38 37 34 32 33 35 37 35 34 36 38 40 42 51 57 61 62 65 64 64 63
13 15 8 15 17 19 7 7 8 7 3 7 3 9 6 4 3 4 7 18 24 26 24 21 20 21 31 36 40 41 35 30 30 34 29 23 22 28 27 29 31 35 43 50 55 59 61 64 66 68 70 71 71 68
14 13 7 12 11 18 18 10 6 8 9 6 5 4 6 8 12 17 12 21 36 38 33 26 16 21 32 34 34 34 32 35 39 38 32 30 31 32 39 42 43 44 47 51 50 52 55 58 62 65 68 72 74 74
15 19 8 11 10 9 12 14 13 20 24 22 17 23 24 25 24 22 15 23 48 44 37 33 39 45 51 52 48 35 29 31 29 32 42 47 51 49 47 46 47 48 50 54 56 57 56 58 59 61 66 68 69 72
10 10 11 14 10 10 18 23 29 33 28 28 28 24 16 10 10 28 39 29 51 50 44 43 46 48 55 54 52 52 48 35 35 39 44 49 50 50 49 48 48 50 52 55 58 61 63 66 69 72 74 75 75 78
14 15 8 8 6 7 4 7 8 10 11 11 13 11 7 6 7 17 43 35 55 57 50 52 58 59 52 46 41 45 43 44 47 48 47 49 50 50 53 55 58 61 63 67 70 72 73 75 76 78 83 86 86 84
9 16 16 11 7 5 6 5 7 8 12 9 12 16 14 9 7 27 51 37 60 64 54 60 63 60 52 44 44 36 43 46 43 40 41 44 47 52 57 61 63 66 69 70 72 74 77 79 81 83 84 86 86 85
Wind_Direction_500mb
210 212 210 214 216 227 212 206 199 205 206 217 214 210 207 211 211 200 202 195 186 162 165 182 169 163 158 153 144 151 108 196 164 162 148 191 132 202 137 175 175 164 156 191 153 191 269 19 0 153 303 325 347 349
207 208 209 208 210 212 213 229 228 189 203 200 193 194 207 202 199 198 192 187 189 166 171 178 181 181 183 176 148 166 152 149 166 125 219 104 105 109 179 223 146 251 187 184 178 208 94 89 151 176 318 330 339 330
212 209 209 208 204 205 204 208 226 228 205 205 209 208 188 204 196 201 198 187 182 130 121 153 179 185 185 188 187 149 178 166 172 145 135 148 140 141 163 239 156 276 169 185 60 298 58 78 94 355 343 329 317 321
212 211 208 206 205 202 203 206 203 209 234 226 201 208 215 191 195 198 202 197 183 145 117 136 171 172 180 181 184 190 186 167 160 140 112 150 135 186 185 152 169 169 141 196 256 276 342 161 23 325 322 313 309 306
214 211 209 206 205 200 199 203 203 194 205 220 237 223 203 223 215 191 203 194 186 176 118 128 143 138 149 161 177 172 165 157 147 109 95 176 114 118 82 58 239 185 190 181 221 145 199 270 295 315 306 309 313 314
213 209 208 205 204 202 199 198 199 197 193 193 207 212 200 174 167 176 148 180 184 177 111 131 128 143 144 144 148 146 150 149 125 118 116 105 144 148 144 213 194 179 185 204 137 228 282 307 309 269 300 312 310 308
211 209 204 202 201 198 197 197 197 193 192 197 189 187 202 174 188 173 183 192 171 158 103 110 99 141 144 138 125 125 128 122 121 119 85 129 140 152 181 221 167 179 192 195 223 276 319 235 298 310 313 314 313 317
206 203 198 197 197 196 193 193 192 187 179 180 175 179 188 210 182 200 160 172 164 154 110 115 100 136 155 122 107 123 99 96 77 111 124 119 126 158 253 160 165 180 185 187 226 276 297 298 305 309 314 319 324 334
201 195 195 191 190 189 188 187 186 178 169 162 169 141 157 158 153 147 152 153 149 126 123 140 139 155 158 122 119 105 112 83 103 98 97 137 179 221 223 184 190 190 195 178 251 292 296 308 312 319 324 326 329 339
195 190 189 185 185 185 184 182 178 174 162 160 152 140 129 143 149 146 129 118 124 114 108 88 117 128 158 148 104 110 114 131 142 204 137 148 254 237 210 202 195 190 201 255 289 298 302 315 314 321 322 328 328 333
184 183 180 181 182 181 180 176 170 164 162 150 149 115 142 138 139 101 111 141 147 109 88 104 122 123 124 117 131 129 154 141 120 244 129 243 268 194 191 179 181 194 236 284 298 298 297 304 309 312 322 325 325 329
175 175 177 176 175 176 173 169 161 162 166 167 154 139 144 142 94 92 79 133 243 127 129 117 117 115 121 125 111 171 103 66 172 144 94 259 235 177 178 183 186 209 271 284 284 284 284 289 293 303 316 321 321 325
162 164 167 170 169 170 168 168 171 172 162 143 140 141 148 90 127 148 151 191 109 164 155 146 128 121 121 127 96 94 103 159 129 107 227 227 163 171 173 179 195 251 265 262 263 268 274 279 284 297 306 309 311 316
150 153 159 166 173 177 174 170 181 173 151 183 153 113 186 168 87 71 61 122 127 141 137 134 110 116 120 80 103 101 264 105 112 230 234 209 177 172 180 196 241 254 253 252 254 262 271 277 282 288 296 302 306 309
146 147 155 169 179 198 195 183 180 171 181 70 36 66 51 203 44 102 104 108 122 141 133 109 77 88 59 87 64 113 56 219 202 228 218 164 167 172 188 232 241 239 242 244 248 256 264 275 286 293 294 298 301 304
150 151 149 142 131 111 136 167 165 161 81 62 57 82 103 75 44 65 98 114 132 128 106 78 90 78 95 137 107 190 139 215 231 158 156 159 165 190 229 236 236 239 241 242 249 257 264 279 291 297 299 301 300 302
166 153 157 138 119 112 118 126 116 50 62 53 51 69 73 69 70 95 126 124 135 116 101 115 91 180 114 64 123 175 196 202 154 143 153 179 212 226 231 230 232 237 242 247 254 263 275 286 293 299 304 305 299 299
137 151 155 138 115 107 102 87 99 74 68 45 62 21 62 81 88 88 80 90 99 109 100 141 131 112 139 140 237 183 123 147 154 164 189 212 226 229 223 224 231 240 247 254 264 271 282 289 296 302 302 303 302 301
132 139 142 145 140 103 82 64 62 92 71 75 72 73 77 84 79 79 81 87 88 94 107 93 66 70 87 49 60 113 145 158 187 205 225 237 237 226 226 240 248 256 261 265 271 281 289 294 300 303 303 302 302 303
140 148 156 167 139 91 83 62 62 83 84 80 74 66 75 85 76 63 67 69 64 52 47 41 70 47 60 72 102 144 167 193 215 218 223 210 219 229 240 268 273 273 279 280 284 291 293 294 299 295 297 302 302 304
151 123 118 102 70 63 74 63 66 83 103 85 85 66 64 55 45 40 36 29 56 39 59 56 60 51 49 85 180 187 200 220 229 235 249 264 276 272 273 283 283 287 288 289 293 294 296 302 300 296 297 302 300 302
124 104 74 62 71 67 62 43 84 97 75 83 56 57 58 45 27 26 36 45 58 38 50 46 26 23 22 141 181 246 255 265 272 279 283 287 289 284 283 288 289 288 289 293 293 298 302 303 298 298 298 299 297 299
74 69 56 50 79 61 68 59 74 57 86 105 91 62 28 45 44 36 66 53 65 54 45 29 15 6 10 337 296 290 286 288 289 288 294 298 298 300 296 296 293 292 293 295 288 293 298 298 300 297 295 297 298 298
59 52 38 47 47 83 86 52 64 78 83 46 63 65 18 57 73 66 78 61 45 29 14 8 10 18 8 339 325 312 303 300 299 297 300 302 300 300 298 298 295 296 297 297 295 296 295 294 292 292 293 295 298 300
71 13 29 21 33 57 51 27 12 54 70 4 84 41 325 52 75 57 74 46 15 8 4 9 8 1 348 332 312 308 307 306 307 307 315 307 306 304 301 299 299 298 295 294 296 293 294 295 294 293 293 296 300 301
64 15 37 1 10 63 344 72 43 115 114 63 43 62 60 78 63 50 37 1 3 5 2 2 359 356 358 340 330 326 322 314 312 314 322 315 310 306 305 305 305 307 299 293 293 292 292 294 296 298 298 300 300 300
59 353 34 33 37 54 62 61 66 62 59 75 338 8 67 70 72 52 33 16 11 357 348 347 349 350 345 342 340 337 331 324 323 322 322 317 312 308 304 305 309 307 301 298 296 294 295 297 299 300 300 300 302 303
65 34 73 10 56 41 89 48 43 48 17 6 327 37 91 78 138 123 86 62 35 12 356 334 317 325 338 337 334 331 329 319 320 324 323 324 323 320 315 311 307 302 299 297 297 297 298 299 301 302 301 302 302 304
45 16 44 46 63 49 43 35 49 22 6 23 81 71 86 73 118 116 72 25 9 2 4 10 3 343 335 333 335 336 328 322 323 325 324 322 322 322 316 311 307 304 302 301 301 302 303 303 302 302 302 302 304 305
22 22 75 55 58 34 21 44 64 65 63 74 90 99 93 100 83 54 47 22 12 11 10 6 359 352 346 342 340 343 347 332 332 328 325 322 321 322 322 320 317 315 313 310 309 308 306 303 301 299 298 299 300 301
24 40 73 61 83 84 92 85 77 69 68 68 81 97 109 122 77 38 25 14 7 4 2 358 357 357 349 346 340 336 339 344 336 328 321 319 320 321 321 320 319 318 317 315 314 312 312 310 308 306 305 305 306 306
29 40 86 96 107 121 79 52 61 70 57 56 45 50 58 60 56 15 4 5 3 360 357 352 350 349 348 340 338 333 329 330 329 325 324 321 319 321 319 318 317 316 315 315 315 314 313 312 310 309 308 307 307 306
55 48 64 89 96 81 58 82 71 83 60 57 41 33 34 36 41 7 360 357 358 353 346 348 345 345 347 344 338 336 329 325 325 324 322 318 315 315 316 318 317 315 314 312 311 312 311 310 309 308 307 307 307 308
Wind_Speed_850mb
36 37 38 38 40 40 34 30 47 55 53 54 50 64 137 143 136 129 84 89 78 24 44 37 30 33 32 30 11 31 14 4 2 4 6 7 6 9 3 7 12 13 12 8 5 5 16 19 10 4 6 15 22 29
41 40 38 40 38 34 33 36 38 39 54 56 60 55 80 139 143 130 78 85 79 31 28 41 37 34 35 40 32 52 7 19 23 6 2 6 5 5 7 6 4 3 12 8 15 11 5 13 11 4 11 17 20 26
40 40 39 40 42 38 34 33 30 34 42 50 44 55 66 85 139 141 89 96 80 26 25 30 36 35 33 34 36 26 16 21 23 16 11 4 7 7 7 9 5 6 11 5 7 8 12 7 10 9 17 21 23 22
42 42 43 41 42 41 38 36 32 24 23 30 34 36 63 55 89 127 100 98 84 31 14 9 28 31 34 32 37 27 25 35 39 27 7 5 6 12 5 5 5 5 18 9 9 14 14 20 15 14 28 22 24 39
47 41 42 42 42 43 42 38 34 33 30 26 21 21 38 61 52 114 92 105 87 47 13 23 31 19 28 29 28 22 39 47 34 10 4 3 11 8 9 5 6 21 10 8 7 10 10 13 21 38 25 30 43 47
43 47 45 43 41 42 43 40 37 34 33 31 15 14 27 75 50 73 28 72 77 50 24 9 15 27 32 34 40 43 41 32 14 8 7 9 9 8 7 7 10 24 21 18 12 9 15 27 19 22 34 51 40 48
45 47 49 46 44 42 43 43 39 37 34 32 21 16 25 32 67 64 24 47 68 52 19 11 9 18 43 43 31 29 25 16 9 8 6 9 6 8 3 7 24 28 26 17 14 13 6 7 25 46 40 41 42 40
44 45 48 49 45 44 43 44 40 37 34 31 23 19 27 22 33 44 8 63 79 44 16 9 6 13 31 11 10 14 12 10 7 7 8 6 9 2 8 13 31 30 23 13 14 13 25 32 31 30 31 33 34 33
44 46 46 47 47 47 44 44 43 41 36 34 28 18 46 45 26 26 81 87 52 16 16 10 14 9 24 10 11 10 12 6 5 3 4 8 4 10 13 35 43 37 21 19 15 22 20 18 20 22 25 25 30 31
47 46 46 48 48 51 49 48 49 49 45 40 35 16 9 19 62 88 41 11 10 6 9 7 19 9 25 12 6 12 8 5 5 3 12 3 7 21 22 22 33 33 21 13 17 12 17 18 20 19 21 23 28 31
47 48 51 52 53 54 51 52 55 58 50 37 15 7 50 91 37 12 10 7 8 6 8 12 14 17 14 7 6 4 6 3 5 6 7 5 7 13 35 34 32 24 14 16 15 15 16 18 21 22 20 21 25 27
52 53 54 52 53 53 56 61 64 58 44 32 29 63 43 12 9 11 5 4 1 8 10 12 18 17 19 14 12 5 7 4 6 18 4 7 5 22 43 41 31 16 14 15 16 14 16 17 21 23 22 23 25 25
50 51 49 48 50 55 57 58 52 53 41 41 26 10 7 3 7 10 12 1 6 17 24 25 11 17 15 10 13 7 8 6 24 3 8 8 20 37 42 36 19 12 14 16 16 16 17 18 19 22 24 24 27 26
47 47 47 48 50 52 56 65 67 53 42 14 9 8 0 5 2 6 3 9 13 38 56 44 20 12 11 8 5 9 1 8 3 5 12 5 37 43 38 26 15 15 16 17 16 17 17 19 19 21 27 31 32 31
43 42 40 41 37 47 66 77 71 51 9 6 9 7 7 3 5 9 20 25 42 61 51 35 22 16 7 9 3 9 7 7 12 10 4 17 35 38 31 19 17 17 18 16 16 15 17 20 22 23 26 31 33 33
40 39 31 40 70 78 72 106 87 35 9 12 16 10 1 5 5 13 25 36 51 45 30 21 9 9 1 10 8 10 16 13 7 5 17 29 35 24 19 18 16 16 15 15 15 17 18 21 26 28 28 30 32 35
36 31 44 80 83 73 72 73 30 22 12 9 10 23 13 27 15 17 31 27 25 9 6 9 9 8 5 6 4 6 9 5 17 24 28 20 15 15 16 15 15 13 14 15 16 19 21 25 31 33 34 29 34 34
61 76 84 80 56 36 39 16 15 17 18 25 11 14 28 23 21 21 17 14 8 9 7 7 19 6 9 10 5 3 8 20 20 14 12 12 12 14 15 14 13 13 15 17 19 22 26 30 33 34 36 36 35 32
94 97 78 58 33 12 13 15 15 15 17 13 19 27 28 28 35 30 33 38 37 29 19 8 11 6 3 9 9 10 17 14 10 9 9 11 13 14 12 11 13 15 19 20 23 27 31 32 35 35 37 38 38 34
89 69 48 17 13 12 16 15 15 20 10 10 12 16 14 17 24 33 32 30 29 13 20 10 4 5 7 8 8 9 7 7 8 7 7 9 10 12 13 13 16 21 24 26 30 32 33 34 31 37 38 38 39 37
28 42 43 42 42 31 20 15 19 16 16 14 13 12 14 22 19 22 23 25 19 14 10 11 12 11 6 2 2 4 5 6 6 7 8 11 10 13 17 22 25 27 30 30 33 32 33 35 35 38 38 37 38 38
29 31 27 30 21 18 23 25 17 15 11 11 11 11 13 9 12 14 13 27 14 12 10 10 10 7 3 1 3 4 5 7 9 11 14 17 18 19 22 25 31 32 34 34 35 37 35 34 38 38 38 37 39 38
33 31 21 19 16 16 9 10 10 9 8 4 6 8 8 9 9 12 14 13 10 13 16 18 15 11 7 4 5 8 11 15 17 19 22 26 26 27 29 29 33 37 37 31 35 38 39 40 41 42 39 41 43 44
28 18 19 16 21 7 9 10 10 10 9 7 7 5 4 4 5 11 6 6 9 10 15 19 15 9 6 7 10 15 17 20 26 28 29 32 33 31 33 33 35 37 37 37 38 40 42 43 43 42 42 46 47 50
12 28 17 14 17 10 11 8 8 9 7 5 7 4 3 3 6 7 4 5 8 13 18 17 15 15 14 11 12 20 25 31 36 39 28 33 38 37 33 33 33 33 37 45 43 43 42 43 43 46 48 51 55 58
17 25 15 16 11 9 5 6 6 4 6 7 3 1 2 4 9 3 3 8 10 16 22 23 23 18 14 23 32 31 30 34 37 39 33 33 35 39 42 43 41 33 34 38 43 44 43 43 47 52 57 58 58 60
11 9 15 21 8 7 10 12 9 9 9 5 4 5 4 8 4 0 3 13 14 18 20 20 20 23 29 30 31 33 31 30 33 38 37 34 32 33 35 37 35 34 36 38 40 42 51 57 61 62 65 64 64 63
13 15 8 15 17 19 7 7 8 7 3 7 3 9 6 4 3 4 7 18 24 26 24 21 20 21 31 36 40 41 35 30 30 34 29 23 22 28 27 29 31 35 43 50 55 59 61 64 66 68 70 71 71 68
14 13 7 12 11 18 18 10 6 8 9 6 5 4 6 8 12 17 12 21 36 38 33 26 16 21 32 34 34 34 32 35 39 38 32 30 31 32 39 42 43 44 47 51 50 52 55 58 62 65 68 72 74 74
15 19 8 11 10 9 12 14 13 20 24 22 17 23 24 25 24 22 15 23 48 44 37 33 39 45 51 52 48 35 29 31 29 32 42 47 51 49 47 46 47 48 50 54 56 57 56 58 59 61 66 68 69 72
10 10 11 14 10 10 18 23 29 33 28 28 28 24 16 10 10 28 39 29 51 50 44 43 46 48 55 54 52 52 48 35 35 39 44 49 50 50 49 48 48 50 52 55 58 61 63 66 69 72 74 75 75 78
14 15 8 8 6 7 4 7 8 10 11 11 13 11 7 6 7 17 43 35 55 57 50 52 58 59 52 46 41 45 43 44 47 48 47 49 50 50 53 55 58 61 63 67 70 72 73 75 76 78 83 86 86 84
9 16 16 11 7 5 6 5 7 8 12 9 12 16 14 9 7 27 51 37 60 64 54 60 63 60 52 44 44 36 43 46 43 40 41 44 47 52 57 61 63 66 69 70 72 74 77 79 81 83 84 86 86 85
Wind_Direction_850mb
210 212 210 214 216 227 212 206 199 205 206 217 214 210 207 211 211 200 202 195 186 162 165 182 169 163 158 153 144 151 108 196 164 162 148 191 132 202 137 175 175 164 156 191 153 191 269 19 0 153 303 325 347 349
207 208 209 208 210 212 213 229 228 189 203 200 193 194 207 202 199 198 192 187 189 166 171 178 181 181 183 176 148 166 152 149 166 125 219 104 105 109 179 223 146 251 187 184 178 208 94 89 151 176 318 330 339 330
212 209 209 208 204 205 204 208 226 228 205 205 209 208 188 204 196 201 198 187 182 130 121 153 179 185 185 188 187 149 178 166 172 145 135 148 140 141 163 239 156 276 169 185 60 298 58 78 94 355 343 329 317 321
212 211 208 206 205 202 203 206 203 209 234 226 201 208 215 191 195 198 202 197 183 145 117 136 171 172 180 181 184 190 186 167 160 140 112 150 135 186 185 152 169 169 141 196 256 276 342 161 23 325 322 313 309 306
214 211 209 206 205 200 199 203 203 194 205 220 237 223 203 223 215 191 203 194 186 176 118 128 143 138 149 161 177 172 165 157 147 109 95 176 114 118 82 58 239 185 190 181 221 145 199 270 295 315 306 309 313 314
213 209 208 205 204 202 199 198 199 197 193 193 207 212 200 174 167 176 148 180 184 177 111 131 128 143 144 144 148 146 150 149 125 118 116 105 144 148 144 213 194 179 185 204 137 228 282 307 309 269 300 312 310 308
211 209 204 202 201 198 197 197 197 193 192 197 189 187 202 174 188 173 183 192 171 158 103 110 99 141 144 138 125 125 128 122 121 119 85 129 140 152 181 221 167 179 192 195 223 276 319 235 298 310 313 314 313 317
206 203 198 197 197 196 193 193 192 187 179 180 175 179 188 210 182 200 160 172 164 154 110 115 100 136 155 122 107 123 99 96 77 111 124 119 126 158 253 160 165 180 185 187 226 276 297 298 305 309 314 319 324 334
201 195 195 191 190 189 188 187 186 178 169 162 169 141 157 158 153 147 152 153 149 126 123 140 139 155 158 122 119 105 112 83 103 98 97 137 179 221 223 184 190 190 195 178 251 292 296 308 312 319 324 326 329 339
195 190 189 185 185 185 184 182 178 174 162 160 152 140 129 143 149 146 129 118 124 114 108 88 117 128 158 148 104 110 114 131 142 204 137 148 254 237 210 202 195 190 201 255 289 298 302 315 314 321 322 328 328 333
184 183 180 181 182 181 180 176 170 164 162 150 149 115 142 138 139 101 111 141 147 109 88 104 122 123 124 117 131 129 154 141 120 244 129 243 268 194 191 179 181 194 236 284 298 298 297 304 309 312 322 325 325 329
175 175 177 176 175 176 173 169 161 162 166 167 154 139 144 142 94 92 79 133 243 127 129 117 117 115 121 125 111 171 103 66 172 144 94 259 235 177 178 183 186 209 271 284 284 284 284 289 293 303 316 321 321 325
162 164 167 170 169 170 168 168 171 172 162 143 140 141 148 90 127 148 151 191 109 164 155 146 128 121 121 127 96 94 103 159 129 107 227 227 163 171 173 179 195 251 265 262 263 268 274 279 284 297 306 309 311 316
150 153 159 166 173 177 174 170 181 173 151 183 153 113 186 168 87 71 61 122 127 141 137 134 110 116 120 80 103 101 264 105 112 230 234 209 177 172 180 196 241 254 253 252 254 262 271 277 282 288 296 302 306 309
146 147 155 169 179 198 195 183 180 171 181 70 36 66 51 203 44 102 104 108 122 141 133 109 77 88 59 87 64 113 56 219 202 228 218 164 167 172 188 232 241 239 242 244 248 256 264 275 286 293 294 298 301 304
150 151 149 142 131 111 136 167 165 161 81 62 57 82 103 75 44 65 98 114 132 128 106 78 90 78 95 137 107 190 139 215 231 158 156 159 165 190 229 236 236 239 241 242 249 257 264 279 291 297 299 301 300 302
166 153 157 138 119 112 118 126 116 50 62 53 51 69 73 69 70 95 126 124 135 116 101 115 91 180 114 64 123 175 196 202 154 143 153 179 212 226 231 230 232 237 242 247 254 263 275 286 293 299 304 305 299 299
137 151 155 138 115 107 102 87 99 74 68 45 62 21 62 81 88 88 80 90 99 109 100 141 131 112 139 140 237 183 123 147 154 164 189 212 226 229 223 224 231 240 247 254 264 271 282 289 296 302 302 303 302 301
132 139 142 145 140 103 82 64 62 92 71 75 72 73 77 84 79 79 81 87 88 94 107 93 66 70 87 49 60 113 145 158 187 205 225 237 237 226 226 240 248 256 261 265 271 281 289 294 300 303 303 302 302 303
140 148 156 167 139 91 83 62 62 83 84 80 74 66 75 85 76 63 67 69 64 52 47 41 70 47 60 72 102 144 167 193 215 218 223 210 219 229 240 268 273 273 279 280 284 291 293 294 299 295 297 302 302 304
151 123 118 102 70 63 74 63 66 83 103 85 85 66 64 55 45 40 36 29 56 39 59 56 60 51 49 85 180 187 200 220 229 235 249 264 276 272 273 283 283 287 288 289 293 294 296 302 300 296 297 302 300 302
124 104 74 62 71 67 62 43 84 97 75 83 56 57 58 45 27 26 36 45 58 38 50 46 26 23 22 141 181 246 255 265 272 279 283 287 289 284 283 288 289 288 289 293 293 298 302 303 298 298 298 299 297 299
74 69 56 50 79 61 68 59 74 57 86 105 91 62 28 45 44 36 66 53 65 54 45 29 15 6 10 337 296 290 286 288 289 288 294 298 298 300 296 296 293 292 293 295 288 293 298 298 300 297 295 297 298 298
59 52 38 47 47 83 86 52 64 78 83 46 63 65 18 57 73 66 78 61 45 29 14 8 10 18 8 339 325 312 303 300 299 297 300 302 300 300 298 298 295 296 297 297 295 296 295 294 292 292 293 295 298 300
71 13 29 21 33 57 51 27 12 54 70 4 84 41 325 52 75 57 74 46 15 8 4 9 8 1 348 332 312 308 307 306 307 307 315 307 306 304 301 299 299 298 295 294 296 293 294 295 294 293 293 296 300 301
64 15 37 1 10 63 344 72 43 115 114 63 43 62 60 78 63 50 37 1 3 5 2 2 359 356 358 340 330 326 322 314 312 314 322 315 310 306 305 305 305 307 299 293 293 292 292 294 296 298 298 300 300 300
59 353 34 33 37 54 62 61 66 62 59 75 338 8 67 70 72 52 33 16 11 357 348 347 349 350 345 342 340 337 331 324 323 322 322 317 312 308 304 305 309 307 301 298 296 294 295 297 299 300 300 300 302 303
65 34 73 10 56 41 89 48 43 48 17 6 327 37 91 78 138 123 86 62 35 12 356 334 317 325 338 337 334 331 329 319 320 324 323 324 323 320 315 311 307 302 299 297 297 297 298 299 301 302 301 302 302 304
45 16 44 46 63 49 43 35 49 22 6 23 81 71 86 73 118 116 72 25 9 2 4 10 3 343 335 333 335 336 328 322 323 325 324 322 322 322 316 311 307 304 302 301 301 302 303 303 302 302 302 302 304 305
22 22 75 55 58 34 21 44 64 65 63 74 90 99 93 100 83 54 47 22 12 11 10 6 359 352 346 342 340 343 347 332 332 328 325 322 321 322 322 320 317 315 313 310 309 308 306 303 301 299 298 299 300 301
24 40 73 61 83 84 92 85 77 69 68 68 81 97 109 122 77 38 25 14 7 4 2 358 357 357 349 346 340 336 339 344 336 328 321 319 320 321 321 320 319 318 317 315 314 312 312 310 308 306 305 305 306 306
29 40 86 96 107 121 79 52 61 70 57 56 45 50 58 60 56 15 4 5 3 360 357 352 350 349 348 340 338 333 329 330 329 325 324 321 319 321 319 318 317 316 315 315 315 314 313 312 310 309 308 307 307 306
55 48 64 89 96 81 58 82 71 83 60 57 41 33 34 36 41 7 360 357 358 353 346 348 345 345 347 344 338 336 329 325 325 324 322 318 315 315 316 318 317 315 314 312 311 312 311 310 309 308 307 307 307 308